Location: Valdosta
(30.8330°N, 83.2790°W)
Time: 14:47:00
(UTC-05:00)

Daily predictions for brighter satellites

Satellite Brightness Start Highest point End
(mag) Time Altitude Azimuth Time Altitude Azimuth Time Altitude Azimuth
SPOT 3 Rocket 3.7 18:18:44 10° SSE 18:23:53 86° W 18:29:03 10° NNW
MSX 3.8 18:18:35 10° SSE 18:24:17 82° ENE 18:30:02 10° N
Meteor 1-11 4.3 18:21:16 10° S 18:26:53 67° E 18:32:34 10° NNE
Thor Agena Rocket 4.3 18:22:12 10° N 18:27:18 57° WNW 18:32:20 10° SSW
Cosmos 1980 4.5 18:22:36 10° SW 18:28:09 55° WNW 18:33:43 10° N
COSMOS 2441 4.3 18:23:29 10° SSE 18:28:21 77° ENE 18:33:12 10° N
Lacrosse 5 rocket 2.6 18:28:05 10° N 18:31:00 20° NE 18:34:02 10° E
CORIOLIS 4.5 18:26:08 10° S 18:31:27 74° WSW 18:36:49 10° NNW
Cosmos 1538 Rocket 4.5 18:28:14 10° S 18:33:08 41° E 18:38:05 10° NNE
Cosmos 2151 3.2 18:29:26 10° S 18:33:37 74° W 18:37:49 10° N
Tiangong 1 3.2 18:33:33 10° S 18:35:09 14° SE 18:36:46 10° ESE
CZ-4 R/B 3.8 18:39:49 10° SSW 18:43:06 26° W 18:46:24 10° NW
Cosmos 2279 Rocket 4.0 18:37:08 10° N 18:43:16 61° E 18:49:25 10° SSE
ALOS 3.8 18:41:53 10° E 18:44:23 14° ENE 18:46:54 10° NE
IDEFIX/ARIANE 42P 4.4 18:41:48 10° SSW 18:46:32 36° W 18:51:19 10° NNW
Cosmos 2333 Rocket 4.0 18:42:38 10° SW 18:47:31 30° WNW 18:52:27 10° N
Cosmos 2219 Rocket 4.4 18:44:32 10° WSW 18:48:53 23° WNW 18:53:15 10° N
Centaur AC-119 3.0 18:47:44 10° SW 18:49:34 26° SSE 18:52:10 13° ESE
Cosmos 1626 2.3 18:47:47 10° SSE 18:51:23 48° E 18:55:00 10° NNE
SJ-6B 3.6 18:52:31 10° SE 18:56:07 32° ENE 18:59:47 10° N
Milstar 3 3.4 18:49:57 10° W 18:56:35 54° SSW 19:03:40 10° ESE
Nadezhda 4 Rocket 4.1 18:51:02 10° SSE 18:57:03 53° E 19:03:09 10° NNE
Aureole 2 Rocket 4.4 18:54:10 10° SW 18:57:25 32° WNW 19:00:57 10° N
Cosmos 1703 3.2 18:55:49 10° S 18:59:42 88° W 19:03:36 10° N
Cosmos 1151 Rocket 4.2 18:57:01 10° NNW 19:01:06 45° W 19:05:12 10° SSW
FAST Rocket 3.7 19:01:24 10° S 19:04:16 80° E 19:06:50 10° N
Cosmos 2278 Rocket 2.5 18:59:38 10° NNW 19:05:18 73° WSW 19:10:56 10° SSE
Cosmos 1805 Rocket 3.7 19:01:13 10° S 19:05:38 76° W 19:10:06 10° N
Cosmos 2180 Rocket 4.4 19:01:46 10° N 19:07:57 81° E 19:14:12 10° S
Cosmos 1455 2.7 19:05:23 10° NNE 19:08:55 36° E 19:12:27 10° SSE
EPKM 4.0 19:03:18 10° WSW 19:09:44 32° SSW 19:11:23 17° SE
Cosmos 1726 4.4 19:09:09 10° NNW 19:12:23 28° W 19:15:38 10° SSW
Cosmos 773 Rocket 3.9 19:09:18 10° S 19:14:23 69° ESE 19:19:20 11° NNE
Cosmos 372 Rocket 4.4 19:11:14 10° NNW 19:16:15 62° WSW 19:21:17 10° S
FREGAT/IRIS 2.6 19:13:19 10° SSE 19:16:18 54° ENE 19:19:17 10° N
Cosmos 1092 Rocket 4.1 19:11:15 10° SSE 19:17:22 56° E 19:23:33 10° NNE
Helios 1B rocket 4.0 19:20:03 19° SE 19:20:03 19° SE 19:21:49 10° SSE
Atlas Centaur 2 4.4 19:18:52 10° WSW 19:21:18 13° SW 19:23:32 10° S
Sich 1 3.2 19:18:36 10° S 19:23:02 76° W 19:27:29 10° N
USA 215 3.7 19:21:36 25° E 19:24:45 40° NE 19:30:47 10° NNW
OAO 1 Rocket 4.4 19:19:56 10° WNW 19:25:14 72° NNE 19:27:27 35° E
Cosmos 1633 Rocket 3.3 19:26:07 10° SSW 19:30:31 71° W 19:34:55 10° N
SL-16 R/B 3.4 19:25:31 10° SW 19:30:48 41° WNW 19:36:08 10° N
Chunghua 1 4.5 19:30:05 10° WSW 19:34:02 89° SSE 19:34:31 68° ENE
Delta 2 Rocket 4.2 19:35:01 10° SW 19:37:20 28° S 19:37:20 28° S
Cosmos 2195 Rocket 4.4 19:36:42 10° SSE 19:42:37 57° E 19:46:12 24° NNE
Cosmos 2297 4.0 19:42:19 10° NNW 19:47:59 69° WSW 19:53:41 10° S
OTV 4 2.6 19:48:59 10° W 19:50:55 25° WSW 19:50:55 25° WSW
Spot 2 Rocket 3.3 19:55:15 10° SSE 20:00:18 90° ENE 20:05:22 10° NNW
CZ-3A R/B 3.2 19:56:30 10° NNW 20:01:02 58° NE 20:01:30 56° ENE
Resurs 01 Rocket 3.2 19:56:51 10° S 20:03:50 25° NNW 20:05:44 10° NNW
FENGYUN 3A 3.7 20:00:18 10° S 20:05:38 76° WSW 20:11:01 10° NNW
Cosmos 1655 Rocket 3.9 19:59:59 10° S 20:06:18 68° E 20:06:21 68° E
USA 229 DEB 4.5 20:01:24 10° SW 20:07:57 48° NW 20:12:13 22° N
USA 229 4.5 20:01:30 10° SW 20:08:03 48° NW 20:12:16 22° N
Lacrosse 5 rocket 2.9 20:06:41 10° WNW 20:10:12 31° WSW 20:10:50 30° SW
Cosmos 1943 3.9 20:04:52 10° S 20:08:34 40° SSE 20:08:34 40° SSE
Tiangong 1 4.2 20:08:06 10° WSW 20:08:40 14° WSW 20:08:40 14° WSW
ALOS 3.4 20:16:59 10° S 20:21:25 43° W 20:25:50 10° NNW
NOSS 3-1 (A) 4.3 20:16:16 10° SSW 20:19:22 33° S 20:19:22 33° S
Intelsat 5-1 Rocket 4.4 20:36:40 10° WSW 20:38:07 20° SW 20:38:07 20° SW
USA 215 4.3 21:08:59 41° W 21:08:59 41° W 21:13:51 10° NW
